sat.trackr.live / text

‹ back to catalog

STARLINK-38040

NORAD 69717 · 2026-147P

PAYLOAD ACTIVE UNKNOWN

§ Identity

Operator
Country
US
Launch date
2026-06-28
Launch site
AFWTR
Launch vehicle
Mass (kg)
RCS (m²)

Purposes: comms

External: N2YO · Heavens-Above · Gunter

§ Orbital elements

Epoch: 2026-09-20T00:55:57.107424Z

Period
93.91 min
Inclination
97.2847°
Eccentricity
0.0001528
Mean motion
15.33459378 rev/d
Perigee alt
464.5 km
Apogee alt
466.5 km
Semi-major
6,843.6 km
B*
3.9857e-4
RAAN
299.4132°
Arg perigee
94.3667°
Mean anomaly
265.7751°
Rev number
1,416

§ Raw data

STARLINK-380401 69717U 26147P   26263.03885541  .00012820  00000+0  39857-3 0  99902 69717  97.2847 299.4132 0001528  94.3667 265.7751 15.33459378 14163

JSON: /api/v1/satellites/69717 · /tle

For live sub-satellite position, see the globe view (requires WebGL).

§ Visibility from observer

Set your observer location to see the next 7 days of passes ≥ 10°. The values pass through the URL so the page stays shareable.

No JS? Fill the form by hand. The geolocation button needs JavaScript.